Sigfox identifier Datetime Temperature Humidity SNR
003A5F6A 2019-04-23 14:42:14 15.7 31 22.7
003A5F6A 2019-04-23 14:08:12 15.6 31 22.4
003A5F6A 2019-04-23 13:34:10 15.6 31 22.1
003A5F6A 2019-04-23 13:00:09 15.6 31 22
003A5F6A 2019-04-23 12:26:07 15.5 31 21.6
003A5F6A 2019-04-23 11:52:06 15.4 31 21.7
003A5F6A 2019-04-23 11:18:03 15.4 31 21.5
003A5F6A 2019-04-23 10:44:02 15.4 31 21.2
003A5F6A 2019-04-23 10:10:00 15.4 31 20.9
003A5F6A 2019-04-23 09:35:58 15.4 31 20.3
003A5F6A 2019-04-23 09:01:58 15.4 31 19.8
003A5F6A 2019-04-23 08:27:57 15.4 31 19.4
003A5F6A 2019-04-23 07:53:56 15.4 31 19.2
003A5F6A 2019-04-23 07:19:55 15.4 31 19.1
003A5F6A 2019-04-23 06:45:54 15.4 31 19.2
003A5F6A 2019-04-23 06:11:52 15.4 30 19.2
003A5F6A 2019-04-23 05:37:50 15.4 30 19.2
003A5F6A 2019-04-23 05:03:48 15.4 30 19.3
003A5F6A 2019-04-23 04:29:46 15.5 30 19.3
003A5F6A 2019-04-23 03:55:45 15.5 30 19.4
003A5F6A 2019-04-23 03:21:42 15.6 30 19.4
003A5F6A 2019-04-23 02:47:41 15.6 30 19.5
003A5F6A 2019-04-23 02:13:39 15.6 30 19.8
003A5F6A 2019-04-23 01:39:38 15.6 30 19.9
003A5F6A 2019-04-23 01:05:37 15.6 30 20
003A5F6A 2019-04-23 00:31:36 15.6 30 20
003A5F6A 2019-04-22 23:57:34 15.6 30 20
003A5F6A 2019-04-22 23:23:33 15.6 30 20
003A5F6A 2019-04-22 22:49:31 15.6 30 20.1
003A5F6A 2019-04-22 22:15:29 15.6 30 20.1
003A5F6A 2019-04-22 21:41:27 15.6 30 20.1
003A5F6A 2019-04-22 21:07:27 15.6 30 20.1
003A5F6A 2019-04-22 20:33:24 15.6 30 20.1
003A5F6A 2019-04-22 19:59:23 15.6 30 20
003A5F6A 2019-04-22 19:25:21 15.6 30 20
003A5F6A 2019-04-22 18:51:19 15.6 30 20.1
003A5F6A 2019-04-22 18:17:18 15.6 30 20.1
003A5F6A 2019-04-22 17:43:16 15.6 30 19.9
003A5F6A 2019-04-22 17:09:14 15.6 30 20
003A5F6A 2019-04-22 16:35:12 15.6 30 19.9
003A5F6A 2019-04-22 16:01:10 15.6 30 19.9
003A5F6A 2019-04-22 15:27:08 15.6 30 19.9
003A5F6A 2019-04-22 14:53:07 15.6 30 19.8
003A5F6A 2019-04-22 14:19:06 15.6 30 19.8
003A5F6A 2019-04-22 13:45:05 15.5 30 19.8
003A5F6A 2019-04-22 13:11:03 15.5 30 19.7
003A5F6A 2019-04-22 12:37:01 15.5 30 19.7
003A5F6A 2019-04-22 12:03:00 15.4 30 19.5
003A5F6A 2019-04-22 11:28:59 15.4 30 19.4
003A5F6A 2019-04-22 10:54:58 15.4 30 19.3
003A5F6A 2019-04-22 10:20:57 15.4 30 19.3
003A5F6A 2019-04-22 09:46:57 15.4 30 19.2
003A5F6A 2019-04-22 09:12:56 15.4 30 19.2
003A5F6A 2019-04-22 08:38:56 15.4 30 19.2
003A5F6A 2019-04-22 08:04:55 15.4 30 19
003A5F6A 2019-04-22 07:30:54 15.4 30 19
003A5F6A 2019-04-22 06:56:54 15.4 30 18.9
003A5F6A 2019-04-22 06:22:53 15.4 30 19
003A5F6A 2019-04-22 05:48:52 15.4 30 19
003A5F6A 2019-04-22 05:14:51 15.4 30 19
003A5F6A 2019-04-22 04:40:50 15.4 30 19
003A5F6A 2019-04-22 04:06:49 15.4 30 19.1
003A5F6A 2019-04-22 03:32:48 15.4 30 19.1
003A5F6A 2019-04-22 02:58:48 15.4 29 19.2
003A5F6A 2019-04-22 02:24:47 15.4 29 19.2
003A5F6A 2019-04-22 01:50:46 15.4 29 19.2
003A5F6A 2019-04-22 01:16:45 15.4 29 19.2
003A5F6A 2019-04-22 00:42:46 15.4 29 19.3
003A5F6A 2019-04-22 00:08:45 15.4 29 19.2
003A5F6A 2019-04-21 23:34:45 15.4 29 19.2
003A5F6A 2019-04-21 23:00:45 15.4 29 19.4
003A5F6A 2019-04-21 22:26:45 15.4 29 19.4
003A5F6A 2019-04-21 21:52:45 15.4 29 19.3
003A5F6A 2019-04-21 21:18:44 15.4 29 19.4
003A5F6A 2019-04-21 20:44:43 15.4 29 19.4
003A5F6A 2019-04-21 20:10:42 15.4 29 19.4
003A5F6A 2019-04-21 19:36:40 15.4 29 19.4
003A5F6A 2019-04-21 19:02:39 15.2 29 19.5
003A5F6A 2019-04-21 18:28:38 15.3 29 19.4
003A5F6A 2019-04-21 17:54:38 15.4 29 19.6
003A5F6A 2019-04-21 17:20:37 15.4 29 19.6
003A5F6A 2019-04-21 16:46:36 15.3 29 19.7
003A5F6A 2019-04-21 16:12:35 15.4 29 19.7
003A5F6A 2019-04-21 15:38:34 15.4 29 19.7
003A5F6A 2019-04-21 15:04:32 15.3 29 19.6
003A5F6A 2019-04-21 14:30:30 15.4 29 19.5
003A5F6A 2019-04-21 13:56:29 15.3 29 19.5
003A5F6A 2019-04-21 13:22:27 15.4 29 19.4
003A5F6A 2019-04-21 12:48:24 15.4 29 19.4
003A5F6A 2019-04-21 12:14:21 15.4 29 19.2
003A5F6A 2019-04-21 11:40:19 15.4 29 19.2
003A5F6A 2019-04-21 11:06:17 15.4 29 19.2
003A5F6A 2019-04-21 10:32:16 15.4 29 19.2
003A5F6A 2019-04-21 09:58:14 15.4 29 19.3
003A5F6A 2019-04-21 09:24:13 15.4 29 19.3
003A5F6A 2019-04-21 08:50:09 15.4 29 19.1
003A5F6A 2019-04-21 08:16:07 15.4 29 19.1
003A5F6A 2019-04-21 07:42:05 15.4 29 19.3
003A5F6A 2019-04-21 07:08:04 15.4 29 19.3
003A5F6A 2019-04-21 06:34:03 15.4 29 19.2
003A5F6A 2019-04-21 06:00:04 15.4 29 19.2
003A5F6A 2019-04-21 05:26:02 15.4 29 19.1
003A5F6A 2019-04-21 04:52:02 15.4 29 19.2
003A5F6A 2019-04-21 04:18:02 15.4 28 19.2
003A5F6A 2019-04-21 03:44:02 15.4 28 19.2
003A5F6A 2019-04-21 03:10:01 15.4 28 19.2
003A5F6A 2019-04-21 02:36:00 15.4 28 19.2
003A5F6A 2019-04-21 02:01:59 15.4 28 19.1
003A5F6A 2019-04-21 01:27:57 15.4 28 19.1
003A5F6A 2019-04-21 00:53:55 15.4 28 19.1
003A5F6A 2019-04-21 00:19:52 15.4 28 19.1
003A5F6A 2019-04-20 23:45:50 15.4 28 19.1
003A5F6A 2019-04-20 23:11:48 15.4 28 19.2
003A5F6A 2019-04-20 22:37:47 15.4 28 19.2
003A5F6A 2019-04-20 22:03:46 15.4 28 19.2
003A5F6A 2019-04-20 21:29:44 15.4 28 19.3
003A5F6A 2019-04-20 20:55:42 15.4 28 19.3
003A5F6A 2019-04-20 20:21:40 15.4 28 19.3
003A5F6A 2019-04-20 19:47:37 15.4 28 19.3
003A5F6A 2019-04-20 19:13:36 15.4 28 19.3
003A5F6A 2019-04-20 18:39:35 15.4 28 19.2
003A5F6A 2019-04-20 18:05:34 15.4 28 19.2
003A5F6A 2019-04-20 17:31:32 15.4 28 19.1
003A5F6A 2019-04-20 16:57:30 15.4 28 19.1
003A5F6A 2019-04-20 16:23:28 15.4 28 19.1
003A5F6A 2019-04-20 15:49:26 15.4 28 19.1
003A5F6A 2019-04-20 15:15:24 15.4 28 19.1
003A5F6A 2019-04-20 14:41:22 15.4 28 19.1
003A5F6A 2019-04-20 14:07:22 15.4 28 18.9
003A5F6A 2019-04-20 13:33:19 15.4 28 18.9
003A5F6A 2019-04-20 12:59:16 15.5 28 18.8
003A5F6A 2019-04-20 12:25:15 15.6 28 18.8
003A5F6A 2019-04-20 11:51:13 15.6 28 18.8
003A5F6A 2019-04-20 11:17:13 15.6 28 18.8
003A5F6A 2019-04-20 10:43:12 15.6 28 18.9
003A5F6A 2019-04-20 10:09:11 15.6 28 19
003A5F6A 2019-04-20 09:35:09 15.6 28 19.1
003A5F6A 2019-04-20 09:01:08 15.6 28 19
003A5F6A 2019-04-20 08:27:07 15.6 27 19
003A5F6A 2019-04-20 07:53:09 15.6 27 19.2
003A5F6A 2019-04-20 07:19:02 15.6 27 19.2
003A5F6A 2019-04-20 06:45:00 15.6 27 19.2
003A5F6A 2019-04-20 06:10:58 15.6 27 19.3
003A5F6A 2019-04-20 05:36:56 15.6 27 19.2
003A5F6A 2019-04-20 05:02:54 15.7 27 19.2
003A5F6A 2019-04-20 04:28:52 15.8 27 19.2
003A5F6A 2019-04-20 03:54:49 15.8 27 19.2
003A5F6A 2019-04-20 03:20:47 15.8 27 19.2
003A5F6A 2019-04-20 02:46:45 15.8 27 19.3
003A5F6A 2019-04-20 02:12:43 15.8 27 19.3
003A5F6A 2019-04-20 01:38:41 15.8 27 19.2
003A5F6A 2019-04-20 01:04:38 15.8 27 19.3
003A5F6A 2019-04-20 00:30:37 15.9 27 19.4
003A5F6A 2019-04-19 23:56:37 15.9 27 19.3
003A5F6A 2019-04-19 23:22:34 15.9 27 19.4
003A5F6A 2019-04-19 22:48:33 15.9 27 19.4
003A5F6A 2019-04-19 22:14:33 16 27 19.4
003A5F6A 2019-04-19 21:40:30 16 27 19.4
003A5F6A 2019-04-19 21:06:30 16 27 19.3
003A5F6A 2019-04-19 20:32:28 15.9 27 19.4
003A5F6A 2019-04-19 19:58:27 16 27 19.3
003A5F6A 2019-04-19 19:24:25 15.9 27 19.2
003A5F6A 2019-04-19 18:50:23 15.9 27 19.1
003A5F6A 2019-04-19 18:16:21 15.9 27 19.1
003A5F6A 2019-04-19 17:42:19 15.9 27 19
003A5F6A 2019-04-19 17:08:18 15.8 27 18.9
003A5F6A 2019-04-19 16:34:16 15.8 27 18.9
003A5F6A 2019-04-19 16:00:16 15.8 27 18.7
003A5F6A 2019-04-19 15:26:16 15.8 27 18.7
003A5F6A 2019-04-19 14:52:14 15.7 27 18.7
003A5F6A 2019-04-19 14:18:13 15.7 27 18.6
003A5F6A 2019-04-19 13:44:11 15.8 27 18.5
003A5F6A 2019-04-19 13:10:10 15.8 26 18.4
003A5F6A 2019-04-19 12:36:09 15.8 26 18.3
003A5F6A 2019-04-19 12:02:09 15.8 26 18.3
003A5F6A 2019-04-19 11:28:08 15.8 26 18.3
003A5F6A 2019-04-19 10:54:06 15.8 26 18.2
003A5F6A 2019-04-19 10:20:05 15.8 26 18.1
003A5F6A 2019-04-19 09:46:03 15.8 26 18.2
003A5F6A 2019-04-19 09:12:01 15.8 26 18
003A5F6A 2019-04-19 08:37:58 15.8 26 17.9
003A5F6A 2019-04-19 08:03:56 15.8 26 17.8
003A5F6A 2019-04-19 07:29:54 15.8 26 17.7
003A5F6A 2019-04-19 06:55:51 15.9 26 17.7
003A5F6A 2019-04-19 06:21:49 16 26 17.8
003A5F6A 2019-04-19 05:47:46 16 26 18.1
003A5F6A 2019-04-19 05:13:43 16 26 18.7
003A5F6A 2019-04-19 04:39:39 16 26 19
003A5F6A 2019-04-19 04:05:37 16 26 19
003A5F6A 2019-04-19 03:31:34 16 26 19.2
003A5F6A 2019-04-19 02:57:31 16.1 26 19.3
003A5F6A 2019-04-19 02:23:28 16.3 26 19.7
003A5F6A 2019-04-19 01:49:25 16.3 26 20.5
003A5F6A 2019-04-19 01:15:24 16.3 26 20.8
003A5F6A 2019-04-19 00:41:21 16.3 26 21.1
003A5F6A 2019-04-19 00:07:18 16.4 26 21.5
003A5F6A 2019-04-18 23:33:15 16.4 26 21.5
003A5F6A 2019-04-18 22:59:12 16.5 26 21.7
003A5F6A 2019-04-18 22:25:08 16.5 26 21.8
003A5F6A 2019-04-18 21:51:04 16.5 26 21.9
003A5F6A 2019-04-18 21:17:01 16.5 26 21.8
003A5F6A 2019-04-18 20:42:57 16.4 26 21.8
003A5F6A 2019-04-18 20:08:54 16.4 26 21.7
003A5F6A 2019-04-18 19:34:50 16.3 26 21.6
003A5F6A 2019-04-18 19:00:47 16.3 26 21.6
003A5F6A 2019-04-18 18:26:44 16.3 26 21.6
003A5F6A 2019-04-18 17:52:41 16.3 26 21.6
003A5F6A 2019-04-18 17:18:39 16.3 26 21.6
003A5F6A 2019-04-18 16:44:36 16.3 26 21.6
003A5F6A 2019-04-18 16:10:34 16.3 25 21.4
003A5F6A 2019-04-18 15:36:33 16.1 25 21.2
003A5F6A 2019-04-18 15:02:31 16.1 25 20.8
003A5F6A 2019-04-18 14:28:29 16 25 20.6
003A5F6A 2019-04-18 13:54:28 16 25 20.5
003A5F6A 2019-04-18 13:20:27 16.1 25 20.4
003A5F6A 2019-04-18 12:46:26 16 25 20.4
003A5F6A 2019-04-18 12:12:23 16.1 25 20
003A5F6A 2019-04-18 11:38:21 16.1 25 19.3
003A5F6A 2019-04-18 11:04:20 16.1 25 19.1
003A5F6A 2019-04-18 10:30:18 16.1 25 18.7
003A5F6A 2019-04-18 09:56:16 16.2 25 17.9
003A5F6A 2019-04-18 09:22:14 16.3 25 17.8
003A5F6A 2019-04-18 08:48:12 16.3 25 17.8
003A5F6A 2019-04-18 08:14:09 16.3 25 17.2
003A5F6A 2019-04-18 07:40:07 16.3 25 17.2
003A5F6A 2019-04-18 07:06:06 16.3 25 17.6
003A5F6A 2019-04-18 06:32:04 16.3 25 17.9
003A5F6A 2019-04-18 05:58:03 16.3 25 18.2
003A5F6A 2019-04-18 05:24:01 16.3 24 18.8
003A5F6A 2019-04-18 04:50:00 16.3 24 19.3
003A5F6A 2019-04-18 04:15:58 16.4 24 19.3
003A5F6A 2019-04-18 03:41:56 16.5 24 19.2
003A5F6A 2019-04-18 03:07:54 16.5 24 19.3
003A5F6A 2019-04-18 02:33:52 16.5 24 19.8
003A5F6A 2019-04-18 01:59:50 16.5 24 20
003A5F6A 2019-04-18 01:25:49 16.6 24 20.1
003A5F6A 2019-04-18 00:51:46 16.7 24 20.2
003A5F6A 2019-04-18 00:17:44 16.7 24 20.2
003A5F6A 2019-04-17 23:43:43 16.7 24 20.4
003A5F6A 2019-04-17 23:09:40 16.7 24 20.7
003A5F6A 2019-04-17 22:35:38 16.7 24 20.5
003A5F6A 2019-04-17 22:01:41 16.7 24 20.6
003A5F6A 2019-04-17 21:27:35 16.7 24 20.4
003A5F6A 2019-04-17 20:53:32 16.7 24 20.5
003A5F6A 2019-04-17 20:19:30 16.7 24 20.5
003A5F6A 2019-04-17 19:45:29 16.7 24 20.6
003A5F6A 2019-04-17 19:11:28 16.7 24 20.6
003A5F6A 2019-04-17 18:37:26 16.7 24 20.5
003A5F6A 2019-04-17 18:03:25 16.7 23 20.6
003A5F6A 2019-04-17 17:29:24 16.7 23 20.8
003A5F6A 2019-04-17 16:55:23 16.7 23 20.8
003A5F6A 2019-04-17 16:21:22 16.7 23 20.8
003A5F6A 2019-04-17 15:47:21 16.8 23 20.8
003A5F6A 2019-04-17 15:13:19 16.9 23 20.8
003A5F6A 2019-04-17 14:39:16 16.9 23 20.5
003A5F6A 2019-04-17 14:05:13 16.9 23 20.7
003A5F6A 2019-04-17 13:31:12 16.9 23 21.1
003A5F6A 2019-04-17 12:57:09 17.1 23 21.1
003A5F6A 2019-04-17 12:23:07 17 23 20.8
003A5F6A 2019-04-17 11:49:05 17.1 23 20.7
003A5F6A 2019-04-17 11:15:02 17.1 23 20.5
003A5F6A 2019-04-17 10:40:59 17.2 23 20.4
003A5F6A 2019-04-17 10:06:57 17.3 22 20.3
003A5F6A 2019-04-17 09:32:54 17.4 22 20.1
003A5F6A 2019-04-17 08:58:52 17.5 22 19.7
003A5F6A 2019-04-17 08:24:50 17.8 22 19.7
003A5F6A 2019-04-17 07:50:48 17.8 22 19.5
003A5F6A 2019-04-17 07:16:46 17.9 22 19.5
003A5F6A 2019-04-17 06:42:45 18 23 19.2
003A5F6A 2019-04-17 06:08:43 18 22 19.6
003A5F6A 2019-04-17 05:34:41 18 22 20
003A5F6A 2019-04-17 05:00:40 18.2 22 20.1
003A5F6A 2019-04-17 04:26:38 18.2 22 20.2
003A5F6A 2019-04-17 03:52:37 18.2 22 20.1
003A5F6A 2019-04-17 03:18:35 18.2 22 19.8
003A5F6A 2019-04-17 02:44:33 18.4 22 19.7
003A5F6A 2019-04-17 02:10:31 18.4 22 19.4
003A5F6A 2019-04-17 01:36:28 18.4 22 19.3
003A5F6A 2019-04-17 01:02:26 18.4 22 18.8
003A5F6A 2019-04-17 00:28:23 18.6 22 18.7
003A5F6A 2019-04-16 23:54:21 18.6 22 18.5
003A5F6A 2019-04-16 23:20:19 18.8 22 17.8
003A5F6A 2019-04-16 22:46:17 18.9 22 17.5
003A5F6A 2019-04-16 22:12:15 19 22 17.5
003A5F6A 2019-04-16 21:38:13 19.2 22 17.4
003A5F6A 2019-04-16 21:04:10 19.3 22 17.5
003A5F6A 2019-04-16 20:30:10 19.4 22 17.6
003A5F6A 2019-04-16 19:56:05 19.5 22 17.6
003A5F6A 2019-04-16 19:22:02 19.6 22 17.6
003A5F6A 2019-04-16 18:47:59 19.7 22 17.6
003A5F6A 2019-04-16 18:13:59 19.9 22 17.6
003A5F6A 2019-04-16 17:40:00 19.9 22 17.6
003A5F6A 2019-04-16 17:05:53 20.1 22 17.8
003A5F6A 2019-04-16 16:31:53 20.3 22 17.8
003A5F6A 2019-04-16 15:57:49 20.5 22 16.3
003A5F6A 2019-04-16 15:23:46 20.5 22 15.7
003A5F6A 2019-04-16 14:49:41 20.7 22 15.6
003A5F6A 2019-04-16 14:15:38 20.7 22 15.3
003A5F6A 2019-04-16 13:41:38 20.7 23 15.7
003A5F6A 2019-04-16 13:07:35 20.7 23 15.6
003A5F6A 2019-04-16 12:33:32 20.7 22 15.8
003A5F6A 2019-04-16 11:59:32 20.7 23 16.1
003A5F6A 2019-04-16 11:25:32 20.6 22 16.1
003A5F6A 2019-04-16 10:51:28 20.5 22 15.8
003A5F6A 2019-04-16 10:17:24 20.5 22 16
003A5F6A 2019-04-16 09:43:23 20.5 22 16.1
003A5F6A 2019-04-16 09:09:20 20.5 22 16.5
003A5F6A 2019-04-16 08:35:19 20.6 22 16.4
003A5F6A 2019-04-16 08:01:13 20.5 22 16.6
003A5F6A 2019-04-16 07:27:13 20.5 22 16.6
003A5F6A 2019-04-16 06:53:05 20.5 22 16.8
003A5F6A 2019-04-16 06:19:01 20.6 22 16.8
003A5F6A 2019-04-16 05:44:57 20.6 22 16.9
003A5F6A 2019-04-16 05:10:54 20.5 22 16.9
003A5F6A 2019-04-16 04:36:48 20.6 22 18
003A5F6A 2019-04-16 04:02:44 20.6 21 18.6
003A5F6A 2019-04-16 03:28:40 20.7 21 18.6
003A5F6A 2019-04-16 02:54:36 20.6 21 19.1
003A5F6A 2019-04-16 02:20:35 20.7 21 19.5
003A5F6A 2019-04-16 01:46:28 20.7 21 19.9
003A5F6A 2019-04-16 01:12:23 20.7 21 20.2
003A5F6A 2019-04-16 00:38:19 20.7 21 20.7
003A5F6A 2019-04-16 00:04:14 20.7 21 21.1
003A5F6A 2019-04-15 23:30:10 20.7 21 21.1
003A5F6A 2019-04-15 22:56:05 20.7 21 22.3
003A5F6A 2019-04-15 22:22:01 20.7 20 22.4
003A5F6A 2019-04-15 21:47:58 20.7 20 22.5
003A5F6A 2019-04-15 21:13:55 20.9 20 22.9
003A5F6A 2019-04-15 20:39:53 21 20 23.3
003A5F6A 2019-04-15 20:05:51 21 20 23.4
003A5F6A 2019-04-15 19:31:47 21 20 23.5
003A5F6A 2019-04-15 18:57:43 21 19 23.8
003A5F6A 2019-04-15 18:23:38 21.2 19 24.3
003A5F6A 2019-04-15 17:49:39 21.2 19 24.5
003A5F6A 2019-04-15 17:15:34 21.3 19 25.1
003A5F6A 2019-04-15 16:41:28 21.4 19 25.2
003A5F6A 2019-04-15 14:25:15 21.8 18 25.4
003A5F6A 2019-04-15 13:17:11 22 17 25.5
003A5F6A 2019-04-15 12:09:04 22.5 16 25.7
003A5F6A 2019-04-15 11:34:58 22.3 16 25.6
003A5F6A 2019-04-15 11:00:54 22.2 16 25.7
003A5F6A 2019-04-15 10:26:50 22.2 16 25.8
003A5F6A 2019-04-15 09:52:45 22.2 16 25.8
003A5F6A 2019-04-15 09:18:41 22 16 25.7
003A5F6A 2019-04-15 08:44:36 22 16 26
003A5F6A 2019-04-15 08:10:30 21.9 16 26.2
003A5F6A 2019-04-15 07:36:25 21.8 16 26.2
003A5F6A 2019-04-15 07:02:21 21.8 16 26.1
003A5F6A 2019-04-15 06:28:16 21.8 16 26.5
003A5F6A 2019-04-15 05:54:12 21.8 17 26.2
003A5F6A 2019-04-15 05:20:07 21.8 17 26.2
003A5F6A 2019-04-15 04:46:02 21.8 17 26.3
003A5F6A 2019-04-15 04:11:58 21.8 17 26.2
003A5F6A 2019-04-15 03:37:55 21.8 17 26.2
003A5F6A 2019-04-15 03:03:51 21.8 17 26.2
003A5F6A 2019-04-15 02:29:46 21.8 17 26.3
003A5F6A 2019-04-15 01:55:41 21.8 17 26.1
003A5F6A 2019-04-15 01:21:36 21.8 17 26.1
003A5F6A 2019-04-15 00:47:31 21.8 17 26
003A5F6A 2019-04-15 00:13:25 21.8 17 25.7
003A5F6A 2019-04-14 23:39:19 21.8 17 25.6
003A5F6A 2019-04-14 23:05:15 21.8 17 25.6
003A5F6A 2019-04-14 22:31:12 21.8 17 25.5
003A5F6A 2019-04-14 21:57:06 21.8 18 25.5
003A5F6A 2019-04-14 21:23:01 21.9 18 25.6
003A5F6A 2019-04-14 20:48:57 21.9 18 25.6
003A5F6A 2019-04-14 20:14:52 21.9 18 25.6
003A5F6A 2019-04-14 19:40:48 22 18 25.6
003A5F6A 2019-04-14 19:06:42 21.8 18 25.7
003A5F6A 2019-04-14 18:32:37 21.8 17 25.4
003A5F6A 2019-04-14 17:58:33 21.8 17 25.4
003A5F6A 2019-04-14 17:24:28 21.8 17 25.4
003A5F6A 2019-04-14 16:50:24 21.8 17 25.4
003A5F6A 2019-04-14 16:16:20 21.8 17 25
003A5F6A 2019-04-14 15:42:16 21.8 17 25.1
003A5F6A 2019-04-14 15:08:11 21.8 18 25
003A5F6A 2019-04-14 14:34:08 21.8 18 25
003A5F6A 2019-04-14 14:00:04 21.8 18 24.9
003A5F6A 2019-04-14 13:26:00 21.8 18 24.8
003A5F6A 2019-04-14 12:51:55 21.8 18 24.8
003A5F6A 2019-04-14 12:17:50 21.8 18 24.9
003A5F6A 2019-04-14 11:43:45 21.8 18 25
003A5F6A 2019-04-14 11:09:41 21.8 18 24.8
003A5F6A 2019-04-14 10:35:37 21.8 18 24.8
003A5F6A 2019-04-14 10:01:32 21.8 18 24.9
003A5F6A 2019-04-14 09:27:27 21.8 18 25
003A5F6A 2019-04-14 08:53:24 21.8 18 25.2
003A5F6A 2019-04-14 08:19:20 21.8 17 25.3
003A5F6A 2019-04-14 07:45:16 21.8 17 25.3
003A5F6A 2019-04-14 07:11:11 21.8 17 25
003A5F6A 2019-04-14 06:37:07 21.8 17 24.9
003A5F6A 2019-04-14 06:03:03 21.8 17 24.9
003A5F6A 2019-04-14 05:29:01 21.8 17 24.9
003A5F6A 2019-04-14 04:54:56 21.8 17 24.8
003A5F6A 2019-04-14 04:20:52 21.8 17 25.2
003A5F6A 2019-04-14 03:46:49 21.9 17 25.1
003A5F6A 2019-04-14 03:12:45 21.9 17 25
003A5F6A 2019-04-14 02:38:40 22 17 25.1
003A5F6A 2019-04-14 02:04:35 21.9 17 25
003A5F6A 2019-04-14 01:30:31 22 17 25.3
003A5F6A 2019-04-14 00:56:26 22 17 25.3
003A5F6A 2019-04-14 00:22:19 22 17 25.4
003A5F6A 2019-04-13 23:48:14 22 17 25.6
003A5F6A 2019-04-13 23:14:09 22 17 25.6
003A5F6A 2019-04-13 22:40:04 22 17 25.6
003A5F6A 2019-04-13 22:06:00 22 17 25.7
003A5F6A 2019-04-13 21:31:58 22 17 25.5
003A5F6A 2019-04-13 20:57:54 22 17 25.6
003A5F6A 2019-04-13 20:23:50 22 17 25.7
003A5F6A 2019-04-13 19:49:46 22.1 17 25.6
003A5F6A 2019-04-13 19:15:41 22.2 17 25.3
003A5F6A 2019-04-13 18:41:36 22.2 17 25.1
003A5F6A 2019-04-13 18:07:31 22.2 17 25.1
003A5F6A 2019-04-13 17:33:26 22.2 17 25.2
003A5F6A 2019-04-13 16:59:21 22.2 17 25.5
003A5F6A 2019-04-13 16:25:17 22.2 17 25.9
003A5F6A 2019-04-13 15:51:13 22.2 17 25.9
003A5F6A 2019-04-13 15:17:08 22.2 17 25.9
003A5F6A 2019-04-13 14:43:04 22.2 17 25.8
003A5F6A 2019-04-13 14:08:59 22.2 17 25.5
003A5F6A 2019-04-13 13:34:54 22.2 17 25.4
003A5F6A 2019-04-13 13:00:50 22.2 17 25.4
003A5F6A 2019-04-13 12:26:44 22.3 17 25.4
003A5F6A 2019-04-13 11:52:40 22.2 17 25.5
003A5F6A 2019-04-13 11:18:36 22.2 17 25.2
003A5F6A 2019-04-13 10:44:31 22.2 17 25.1
003A5F6A 2019-04-13 10:10:27 22.2 17 25
003A5F6A 2019-04-13 09:36:24 22.2 17 25.2
003A5F6A 2019-04-13 09:02:19 22.2 17 25.2
003A5F6A 2019-04-13 08:28:15 22.2 17 25.2
003A5F6A 2019-04-13 07:54:10 22.2 17 25.2
003A5F6A 2019-04-13 07:20:07 22.2 17 25.1
003A5F6A 2019-04-13 06:46:02 22.2 17 25.5
003A5F6A 2019-04-13 06:11:57 22.3 17 25.4
003A5F6A 2019-04-13 05:37:52 22.2 17 25.6
003A5F6A 2019-04-13 05:03:49 22.3 17 25.8
003A5F6A 2019-04-13 04:29:44 22.3 17 26.1
003A5F6A 2019-04-13 03:55:38 22.4 17 26.4
003A5F6A 2019-04-13 03:21:33 22.5 17 26.3
003A5F6A 2019-04-13 02:47:26 22.5 17 26.1
003A5F6A 2019-04-13 02:13:21 22.5 17 25.8
003A5F6A 2019-04-13 01:39:15 22.5 17 25.9
003A5F6A 2019-04-13 01:05:11 22.5 17 26
003A5F6A 2019-04-13 00:31:06 22.5 18 26.1
003A5F6A 2019-04-12 23:57:01 22.6 18 26.1
003A5F6A 2019-04-12 23:22:55 22.6 18 26.3
003A5F6A 2019-04-12 22:48:50 22.7 18 26.3
003A5F6A 2019-04-12 22:14:45 22.7 18 26.4
003A5F6A 2019-04-12 21:40:39 22.8 18 26.5
003A5F6A 2019-04-12 21:06:34 22.9 18 26.6
003A5F6A 2019-04-12 20:32:28 22.9 18 26.8
003A5F6A 2019-04-12 19:58:23 22.9 18 27
003A5F6A 2019-04-12 19:24:17 22.9 17 26.8
003A5F6A 2019-04-12 18:50:12 22.9 17 27
003A5F6A 2019-04-12 18:16:06 23.1 17 27.1
003A5F6A 2019-04-12 17:42:00 23.1 18 27.2
003A5F6A 2019-04-12 17:07:55 23.1 19 27.5
003A5F6A 2019-04-12 16:33:49 23 19 27
003A5F6A 2019-04-12 15:59:45 22.9 18 27.3
003A5F6A 2019-04-12 15:25:38 22.7 19 27.4
003A5F6A 2019-04-12 14:51:32 22.5 20 27.6
003A5F6A 2019-04-12 14:17:27 22.2 20 26.4
003A5F6A 2019-04-12 13:43:21 21.8 22 22.1
003A5F6A 2019-04-12 13:09:16 21 25 20.7